Regional Weather Roundup
Issued by NWS

Home | Current Version | Previous Version | Graphics & Text | Print | Product List | Glossary On
Versions: 1 2 3 4 5 6 7 8 9 10 11 12 13 14 15 16 17 18 19 20 21 22 23 24 25 26 27 28 29 30 31 32 33 34 35 36 37 38 39 40 41 42 43 44 45 46 47 48 49 50
000
ASUS43 KLSX 262259
RWRMO

WEATHER SUMMARY FOR MISSOURI
NATIONAL WEATHER SERVICE SPRINGFIELD MO
600 PM CDT TUE MAY 26 2015

NOTE: "FAIR" INDICATES FEW OR NO CLOUDS BELOW 12,000 FEET WITH NO
       SIGNIFICANT WEATHER AND/OR OBSTRUCTIONS TO VISIBILITY.
       CURRENT SKY AND/OR WEATHER CONDITIONS ARE NOT AVAILABLE FOR
       CHILLICOTHE AND FARMINGTON.

MOZ001>031-035>038-043-044-053-054-270000-
...NORTHERN AND WESTERN MISSOURI...

CITY           SKY/WX    TMP DP  RH WIND       PRES   REMARKS
KANSAS CTY INT MOSUNNY   76  61  59 W14       29.87S
KANSAS C DTWN  MOSUNNY   80  57  45 W12       29.86F
LEE`S SUMMIT   PTSUNNY   78  59  51 SW9       29.88S
ST JOSEPH      MOSUNNY   76  59  55 W20G25    29.85S
KIRKSVILLE     MOSUNNY   77  60  55 SW13G26   29.82F

$$
MOZ066>068-077>081-088>096-101>105-270000-
...SOUTHWEST MISSOURI...

CITY           SKY/WX    TMP DP  RH WIND       PRES   REMARKS
SPRINGFIELD    SUNNY     77  60  55 S15       29.97S
JOPLIN         SUNNY     76  62  62 S7        29.95S

$$
MOZ032>034-039>042-045>050-055>058-069>072-270000-
...CENTRAL MISSOURI...

CITY           SKY/WX    TMP DP  RH WIND       PRES   REMARKS
COLUMBIA       MOSUNNY   77  61  57 SW13      29.89F
JEFFERSON CITY MOSUNNY   79  59  50 SW16G22   29.89F
ROLLA          SUNNY     75  61  61 SW12      29.92F
SEDALIA        MOSUNNY   78  61  55 SW16G28   29.90F
OSAGE BEACH    CLOUDY    79  59  50 SW10      29.93F

$$
MOZ051-052-059>065-270000-
...EAST CENTRAL MISSOURI...

CITY           SKY/WX    TMP DP  RH WIND       PRES   REMARKS
ST LOUIS INTL  MOSUNNY   80  58  46 SW16G23   29.90F
SPIRIT OF STL  MOSUNNY  N/A N/A N/A SW10      29.89F
ST CHARLES     MOSUNNY   80  59  48 SW13      29.88F

$$
MOZ072>076-082>087-097>100-106>115-270000-
...SOUTH CENTRAL AND SOUTHEAST MISSOURI...

CITY           SKY/WX    TMP DP  RH WIND       PRES   REMARKS
CAPE GIRARDEAU SUNNY     75  64  68 SW12      29.97S
FARMINGTON     SUNNY     75  61  60 SW12G17   30.00S
POPLAR BLUFF   PTSUNNY   76  65  68 S10G24    29.98R
WEST PLAINS    SUNNY     75  60  59 SW7       30.00F

$$


USA.gov is the U.S. government's official web portal to all federal, state and local government web resources and services.